Location: Favalello
(42.2939°N, 9.2706°E)
Time: 22:51:17
(UTC+00:00)

SMAP - Pass Details

Date: 06 December 2019
Orbit: 681 x 684 km, 98.1° (Epoch: 18 January)

Event Time Altitude Azimuth Distance (km) Brightness Sun altitude
Rises 16:21:52 0° 152° (SSE) 3,033 6.4 -6.0°
Reaches altitude 10° 16:24:08 10° 147° (SSE) 2,122 5.5 -6.3°
Maximum altitude 16:28:37 51° 72° (ENE) 860 3.2 -7.1°
Drops below altitude 10° 16:33:09 10° 357° (N) 2,137 5.4 -7.9°
Sets 16:35:26 0° 353° (N) 3,057 6.3 -8.2°
